COSMOS 1339

Satellite information

Favourite Embed

Satellite Type and Status

PAYLOADIN ORBIT

Key statistics

Satellite COSMOS 1339 at a glance.

Uptime

15956

Days in orbit

Revolutions

≈ 13.8

Per day

Orbit

LEO

Low Earth Orbit

Inclination

82.9

Latest

Satellite identification and parameters

Extended collection of information and parameters for COSMOS 1339.

Object identification

Identified? True

Debris? False

Object name: COSMOS 1339

International designator: 1982-012A

Object number (NORAD): 13065

Object ID (CCSDS): 13065

Country: COMMONWEALTH OF INDEPENDENT STATES (CIS)

Current information (Y/N): Y

RCS size: LARGE

Orbital parameters

Period: 104.67 minutes

Inclination: 82.8979 deg

SMA: 7357.108 km

Apoapsis: 1011.777 km

Periapsis: 946.168 km

RAAN: 134.9865 deg

Eccentricy: 0.00445889

Argument of periapsis: 95.8829 deg

Mean anomaly: 264.7412 deg

Mean motion: 13.75758161 rev/day

Mean motion (dot): 0.00000097 rev/day2

B* drag term: 0.000083748601 1/REarth

Two-line elements (TLE)

Creation date: Oct. 25, 2025, 3:11 a.m.

Reference frame: TEME

Reference center: EARTH

Epoch: Oct. 24, 2025, 10:20 p.m. UTC

TLE line 0: 0 COSMOS 1339

TLE line 1: 1 13065U 82012A 25297.93094214 .00000097 00000-0 83749-4 0 9996

TLE line 2: 2 13065 82.8979 134.9865 0044589 95.8829 264.7412 13.75758161192188

Live tracking on map

Real-time ground track for satellite COSMOS 1339.

In-orbit conjunctions

A list of the most updated potential collisions computed for object COSMOS 1339.

Target Orbit TCA Probability of collision Miss distance Type
THORAD AGENA D DEB SSO 2025-01-01 23:21:43 0.0001143372 255.0 (m) DEBRIS

Associated space launch

Civilian navigation satellite equivalent to the purely military Parus

COSMOS 1339 was lifted into orbit during the mission ‘Kosmos-3M | Tsikada 9’, on board a Kosmos-3M space rocket.

The launch took place on Feb. 17, 1982, 9:56 p.m. from 132/2.

For more information about the launch, click the button.

Launch to space Kosmos-3M | Tsikada 9
Kosmos-3M | Tsikada 9

Agency: N/A

Status: Launch Successful

Launch date: Feb. 17, 1982, 9:56 p.m. UTC

Rocket: Kosmos-3M

Launch pad: 132/2

Location: Plesetsk Cosmodrome, Russian Federation

...

Latest news about this satellite

There are no fresh news available about this satellite. Check back as we update our databases every day.


Newsletter sign-up

Weekly statistics, charts and insights to help you stay on top of the space industry.